Location: Boca do Mato
(22.9085°S, 43.2930°W)
Time: 22:35:07
(UTC+00:00)

Cosmos 2026 Rocket - Pass Details

Date: 14 July 2020
Orbit: 938 x 1002 km, 82.9° (Epoch: 10 August)

Event Time Altitude Azimuth Distance (km) Brightness Sun altitude
Rises 08:15:23 0° 344° (NNW) 3,582 7.0 -17.8°
Reaches altitude 10° 08:17:55 10° 339° (NNW) 2,648 6.2 -17.2°
Maximum altitude 08:23:46 52° 264° (W) 1,172 4.0 -16.0°
Drops below altitude 10° 08:29:46 10° 188° (S) 2,705 6.1 -14.6°
Sets 08:32:23 0° 182° (S) 3,667 6.8 -14.1°
